sat.trackr.live / text

‹ back to catalog

STARLINK-33596

NORAD 62758 · 2025-015A

PAYLOAD ACTIVE UNKNOWN

§ Identity

Operator
Country
US
Launch date
2025-01-21
Launch site
AFWTR
Launch vehicle
Mass (kg)
RCS (m²)

Purposes: comms

External: N2YO · Heavens-Above · Gunter

§ Orbital elements

Epoch: 2026-05-25T04:00:03.998880Z

Period
94.01 min
Inclination
53.1589°
Eccentricity
0.0000980
Mean motion
15.31717696 rev/d
Perigee alt
470.0 km
Apogee alt
471.4 km
Semi-major
6,848.8 km
B*
-8.4075e-4
RAAN
327.1924°
Arg perigee
73.4224°
Mean anomaly
179.6855°
Rev number
586

§ Raw data

STARLINK-335961 62758U 25015A   26145.16671295 -.00026377  00000+0 -84075-3 0  99992 62758  53.1589 327.1924 0000980  73.4224 179.6855 15.31717696  5864

JSON: /api/v1/satellites/62758 · /tle

For live sub-satellite position, see the globe view (requires WebGL).

§ Visibility from observer

Set your observer location to see the next 7 days of passes ≥ 10°. The values pass through the URL so the page stays shareable.

No JS? Fill the form by hand. The geolocation button needs JavaScript.